Wind_Speed
30 29 28 28 28 28 28 29 29 29 29 28 26 26 27 28 30 32 33 35 37 38 38 37 37 36 36 36 36 37 38 38 39 39 40 40 41 41 41 41 42 42 42
30 29 28 29 29 29 29 30 30 30 31 30 29 30 31 32 33 35 36 37 38 38 37 36 36 36 37 38 38 39 40 41 41 42 43 44 45 45 46 46 47 47 47
30 29 29 29 30 30 31 31 31 32 32 31 31 32 33 35 36 37 38 39 39 38 37 37 37 38 39 40 41 42 43 44 45 47 48 48 49 50 50 51 51 52 52
31 30 30 30 31 31 31 32 33 34 34 33 33 34 35 36 38 39 39 40 40 40 39 39 40 41 42 43 44 46 47 49 50 52 53 54 55 55 55 56 56 57 57
32 32 31 32 32 32 33 33 34 34 34 34 34 35 36 38 39 40 41 42 42 42 42 43 44 45 46 48 49 51 52 54 55 57 58 59 59 60 60 61 61 61 62
34 33 33 34 34 34 34 35 35 35 35 35 36 37 39 40 41 42 44 45 45 45 46 47 49 50 51 52 54 56 57 59 60 61 62 63 63 64 64 64 65 66 66
35 35 35 35 35 35 35 36 36 36 37 38 40 41 42 43 45 46 47 48 47 48 49 51 52 54 55 57 58 60 62 63 64 65 66 67 67 67 68 68 68 69 70
35 36 37 37 37 37 38 38 38 39 40 41 43 45 47 47 48 50 50 50 51 51 53 55 57 59 60 61 63 64 66 67 68 68 69 70 70 71 71 72 73 74 74
36 37 38 38 39 40 40 41 41 42 43 44 46 47 49 50 50 50 52 53 54 55 57 59 61 64 65 67 68 68 69 70 71 72 73 74 75 76 77 77 78 79 80
37 38 39 40 41 42 43 43 44 45 46 47 49 50 52 53 53 50 50 52 55 57 60 62 65 67 69 71 72 72 73 73 74 75 76 78 79 81 83 84 85 86 87
39 39 40 41 42 43 44 45 46 47 49 50 51 52 53 54 55 55 53 54 56 58 61 63 66 69 71 72 73 73 74 75 76 78 80 82 84 86 88 90 92 94 95
39 40 41 42 43 44 45 46 48 49 50 52 53 54 54 55 56 57 58 58 59 61 63 65 66 68 70 71 72 73 74 76 79 81 84 86 89 92 95 98 101 103 105
39 40 41 42 43 44 46 47 48 50 51 53 53 54 55 56 58 60 63 64 65 66 67 68 69 69 70 71 73 75 78 80 84 87 91 95 99 103 106 109 112 114 116
40 41 42 43 43 44 46 47 49 50 52 53 54 55 57 59 61 63 65 67 69 69 71 72 73 74 75 77 79 82 85 89 93 98 103 107 110 112 113 113 113 112 112
41 42 42 43 43 44 46 47 49 51 53 53 55 57 59 61 63 65 67 70 72 73 72 72 75 77 80 83 87 91 95 100 105 109 111 111 109 103 97 90 85 84 84
41 41 42 42 43 44 45 47 50 52 53 55 57 60 62 63 65 68 70 71 72 74 74 74 78 81 85 90 96 101 106 110 111 109 104 95 85 74 66 61 59 59 61
40 41 41 42 43 44 46 49 50 52 54 57 60 62 63 65 68 70 71 72 73 75 76 76 81 86 92 98 104 108 109 106 98 88 78 68 60 54 51 49 48 49 51
40 41 42 42 44 45 47 49 52 54 57 59 61 63 66 68 69 71 72 73 75 77 80 82 86 93 99 105 107 105 96 85 74 64 58 54 50 46 45 45 46 47 47
40 41 42 43 45 46 49 51 54 56 58 61 63 65 67 69 70 72 73 76 78 82 86 90 94 100 104 105 99 87 74 62 56 52 49 47 44 43 44 45 45 45 45
40 41 42 44 46 48 51 54 56 58 60 63 65 67 68 70 72 74 76 79 84 88 94 99 103 104 101 92 80 65 53 49 48 46 45 44 42 41 43 44 44 45 46
40 40 42 45 48 51 53 56 58 60 62 64 66 68 69 71 74 77 81 85 90 96 101 105 104 98 86 71 58 49 44 42 41 42 41 40 40 41 42 43 44 45 46
39 41 44 47 50 53 56 58 59 61 63 65 67 69 71 73 77 81 86 91 97 102 104 101 93 80 65 53 45 42 40 38 36 39 39 38 40 40 42 42 42 42 41
40 43 46 49 52 55 56 58 60 62 64 66 68 70 73 77 82 86 91 96 100 101 96 87 74 60 50 44 41 38 37 35 35 38 37 35 37 39 40 40 39 38 36
42 45 48 51 53 55 57 59 61 63 65 67 70 73 77 82 87 92 96 98 96 89 79 68 58 49 43 41 40 38 37 35 34 37 38 36 36 37 38 37 35 32 30
44 47 49 51 53 55 58 60 62 64 65 68 73 78 83 87 92 96 97 94 84 71 60 53 47 43 42 42 40 39 39 38 35 34 36 36 35 33 34 34 31 29 27
45 47 49 51 54 56 59 61 62 64 67 72 77 83 88 92 95 96 91 80 65 55 48 45 44 43 42 41 41 42 41 40 37 33 32 32 32 30 26 29 28 27 26
Wind_Direction
261 261 262 263 266 270 275 280 284 286 287 285 283 283 285 289 291 293 294 295 295 295 293 291 288 286 285 283 282 281 280 278 277 275 274 273 271 270 268 267 265 264 263
263 262 262 263 266 270 274 278 281 284 286 285 283 282 285 289 292 294 295 296 297 296 294 291 288 286 284 283 282 281 280 279 278 277 275 274 273 272 270 269 267 266 264
264 263 262 263 265 269 273 276 280 283 284 283 282 282 285 288 291 293 295 296 296 295 292 290 288 286 284 283 282 280 279 279 278 277 276 275 273 272 271 269 268 267 265
263 262 262 264 266 269 273 277 281 284 284 283 282 283 285 288 291 293 294 295 295 293 290 288 287 285 284 282 281 280 279 278 277 276 276 275 274 273 271 270 269 268 266
261 261 262 264 267 270 274 279 283 285 285 284 283 284 286 289 291 293 294 294 293 290 288 286 285 284 282 281 280 280 279 279 278 278 277 276 275 274 273 272 271 269 268
260 261 262 263 267 271 275 280 283 286 287 286 286 287 289 291 293 294 294 293 291 289 287 285 284 283 282 282 281 281 281 281 280 280 279 278 277 276 274 273 272 270 269
259 260 261 263 267 271 276 280 283 286 288 288 289 290 292 294 295 295 294 292 289 288 287 286 285 285 285 284 284 284 283 283 283 282 280 279 278 276 275 273 272 271 269
260 260 262 264 268 272 275 279 283 286 288 289 290 293 295 296 296 296 294 292 290 289 288 288 288 288 287 287 287 287 286 286 285 283 282 281 279 278 276 274 272 271 269
261 262 264 266 269 272 276 280 283 286 287 289 290 292 294 295 295 295 294 293 293 292 291 291 291 291 291 291 290 289 288 287 286 285 284 282 281 279 278 276 274 272 270
263 265 267 268 271 274 278 281 284 286 288 289 291 292 292 293 293 291 289 290 290 291 292 292 292 292 292 292 291 291 290 288 287 286 285 283 282 280 279 277 275 273 271
264 266 268 271 274 276 279 282 285 287 289 290 291 292 292 293 293 292 291 290 290 290 290 291 291 291 291 291 290 290 289 288 287 286 285 283 282 280 279 277 275 274 272
265 267 270 273 275 277 280 283 286 288 289 290 292 293 293 293 293 293 294 293 292 292 292 291 291 292 292 292 291 290 289 288 287 286 284 283 281 280 278 277 275 273 272
266 268 271 273 276 279 283 285 287 289 290 291 293 293 294 294 295 295 295 295 295 295 294 294 294 293 293 292 292 291 290 289 288 287 286 284 283 281 279 277 275 273 271
267 269 272 275 278 282 285 287 288 290 291 293 294 295 296 296 296 297 297 296 296 296 297 298 298 297 297 296 295 294 293 292 292 291 289 288 287 285 282 280 277 275 272
269 271 274 278 281 284 286 288 289 291 293 294 295 296 297 298 298 298 298 298 299 299 299 300 299 299 299 299 299 298 298 297 296 295 293 292 290 288 286 283 280 277 274
271 274 277 281 283 285 287 289 291 293 295 296 297 298 299 299 299 299 300 301 301 301 301 302 302 302 302 302 301 301 300 300 298 297 295 294 293 291 289 287 284 281 278
274 277 281 283 285 287 289 291 293 294 296 298 299 299 300 300 301 302 303 303 303 303 303 303 303 304 303 303 302 302 302 300 298 297 296 296 295 294 293 291 288 286 283
277 280 283 285 287 289 291 292 294 296 298 299 300 301 301 302 303 304 304 304 304 304 305 305 305 305 304 304 304 303 302 299 298 297 297 297 297 296 294 292 291 289 287
279 282 285 286 288 290 292 294 296 298 299 300 301 302 304 304 305 305 305 305 306 306 306 305 306 305 305 305 304 303 300 298 297 298 297 298 298 297 296 295 295 293 291
281 283 285 287 289 291 294 296 298 300 301 302 303 305 306 306 306 306 306 306 306 306 306 306 307 307 307 306 304 301 298 297 298 298 297 298 299 300 300 300 301 300 297
281 283 286 288 291 294 296 298 300 302 303 304 305 306 306 307 307 308 308 307 307 307 308 308 309 309 307 305 302 300 298 298 299 298 298 300 301 302 302 304 304 303 302
281 284 287 290 293 296 299 300 302 303 304 305 306 307 307 308 308 308 308 308 309 309 309 310 309 309 307 304 302 300 300 299 298 297 298 301 301 303 304 306 307 307 305
283 286 290 292 295 298 300 302 303 305 306 306 307 308 309 309 309 309 309 310 310 311 310 310 309 308 306 303 302 301 301 302 302 299 299 301 301 303 305 308 310 311 310
286 289 292 295 298 300 301 303 305 306 307 308 309 309 310 310 310 310 311 311 312 311 310 308 308 307 305 303 303 302 302 303 304 302 302 303 303 306 308 312 315 316 316
289 292 295 297 299 301 303 304 305 307 308 309 310 310 310 311 311 311 312 313 313 311 309 308 308 307 305 305 303 303 304 304 304 302 301 303 304 307 310 314 317 318 318
292 295 297 299 301 303 304 305 307 308 309 310 310 311 312 312 313 313 314 314 313 311 309 308 308 308 307 306 305 305 304 304 303 302 300 301 302 305 307 311 316 319 319
Height
5799 5800 5799 5799 5799 5798 5797 5796 5795 5794 5792 5790 5789 5787 5785 5783 5781 5779 5776 5774 5772 5770 5767 5765 5763 5761 5759 5758 5757 5755 5754 5753 5752 5751 5750 5750 5749 5748 5748 5748 5747 5747 5748
5794 5794 5793 5793 5792 5792 5791 5790 5789 5788 5786 5784 5782 5780 5778 5776 5774 5771 5769 5766 5764 5761 5759 5756 5754 5752 5751 5749 5748 5747 5745 5744 5742 5741 5740 5739 5739 5738 5737 5737 5736 5736 5736
5788 5788 5787 5787 5786 5785 5784 5783 5782 5781 5779 5777 5776 5774 5771 5769 5766 5764 5761 5758 5755 5753 5751 5748 5746 5744 5742 5741 5739 5738 5736 5734 5732 5731 5729 5728 5727 5726 5725 5725 5724 5724 5724
5782 5781 5781 5780 5779 5778 5778 5776 5775 5773 5771 5770 5768 5766 5764 5761 5758 5755 5752 5749 5747 5744 5742 5740 5737 5735 5733 5731 5729 5727 5725 5723 5721 5719 5717 5715 5714 5713 5712 5711 5710 5710 5710
5775 5775 5774 5773 5772 5772 5771 5769 5768 5766 5764 5762 5760 5758 5756 5753 5750 5747 5744 5741 5738 5735 5733 5730 5728 5726 5723 5721 5718 5715 5713 5710 5708 5705 5703 5701 5699 5698 5696 5695 5694 5694 5694
5768 5768 5767 5767 5766 5765 5764 5763 5761 5758 5756 5754 5752 5750 5747 5744 5741 5738 5735 5731 5728 5725 5722 5719 5717 5714 5712 5709 5705 5702 5699 5696 5693 5690 5687 5685 5683 5681 5680 5678 5677 5676 5676
5761 5761 5760 5760 5759 5758 5757 5755 5753 5752 5749 5746 5743 5741 5738 5735 5731 5728 5724 5721 5718 5715 5711 5708 5704 5701 5698 5695 5691 5687 5684 5680 5677 5674 5671 5668 5665 5663 5662 5660 5659 5657 5657
5754 5754 5753 5752 5752 5751 5749 5748 5746 5744 5741 5738 5735 5731 5728 5725 5721 5717 5713 5709 5706 5702 5699 5695 5690 5686 5683 5679 5675 5671 5667 5663 5659 5655 5651 5648 5646 5644 5642 5640 5638 5637 5636
5746 5746 5745 5745 5744 5743 5741 5739 5737 5735 5733 5730 5726 5723 5719 5715 5712 5708 5701 5696 5692 5688 5684 5679 5674 5669 5665 5661 5657 5653 5648 5644 5639 5635 5631 5627 5624 5621 5619 5617 5615 5614 5612
5739 5738 5737 5737 5735 5734 5733 5731 5728 5725 5722 5719 5716 5712 5708 5704 5701 5699 5695 5689 5683 5677 5671 5665 5659 5653 5648 5642 5638 5633 5629 5624 5619 5615 5610 5606 5602 5598 5595 5592 5589 5587 5585
5731 5730 5729 5728 5727 5725 5723 5721 5718 5715 5711 5708 5705 5701 5697 5692 5687 5684 5683 5678 5673 5666 5660 5653 5646 5639 5632 5626 5621 5616 5610 5605 5600 5595 5589 5584 5579 5574 5569 5565 5561 5557 5555
5723 5722 5721 5719 5718 5716 5714 5711 5708 5704 5701 5697 5693 5688 5684 5680 5675 5670 5666 5663 5658 5652 5645 5638 5631 5623 5615 5608 5602 5597 5591 5585 5579 5573 5566 5560 5553 5547 5541 5534 5529 5524 5520
5715 5713 5712 5710 5708 5706 5703 5700 5697 5693 5689 5685 5681 5676 5671 5667 5661 5656 5650 5645 5640 5635 5628 5621 5613 5605 5597 5590 5583 5576 5570 5562 5555 5547 5539 5530 5522 5513 5505 5498 5491 5484 5479
5706 5704 5703 5700 5698 5696 5693 5689 5686 5681 5677 5673 5668 5664 5658 5653 5647 5641 5634 5628 5623 5618 5609 5601 5591 5582 5574 5566 5559 5551 5543 5534 5525 5514 5504 5493 5482 5471 5461 5452 5444 5437 5432
5697 5695 5693 5691 5688 5685 5682 5678 5674 5670 5665 5661 5656 5650 5645 5638 5632 5625 5618 5611 5604 5598 5593 5582 5571 5561 5550 5541 5531 5520 5511 5501 5489 5475 5463 5451 5439 5428 5418 5409 5401 5395 5390
5689 5687 5684 5682 5679 5675 5671 5668 5663 5658 5654 5649 5643 5637 5630 5623 5616 5609 5602 5593 5584 5577 5571 5563 5551 5539 5527 5516 5503 5490 5478 5465 5451 5436 5423 5411 5402 5394 5387 5380 5374 5368 5363
5680 5678 5675 5672 5669 5665 5661 5657 5652 5647 5642 5636 5630 5623 5616 5608 5600 5592 5584 5575 5566 5557 5550 5545 5531 5519 5505 5491 5477 5461 5445 5430 5416 5404 5394 5385 5379 5373 5367 5361 5355 5350 5345
5671 5669 5666 5662 5659 5655 5651 5646 5641 5636 5630 5623 5616 5609 5601 5593 5584 5575 5566 5556 5547 5537 5528 5522 5512 5497 5481 5463 5448 5432 5415 5400 5390 5382 5375 5369 5363 5357 5351 5346 5340 5335 5330
5662 5659 5656 5653 5649 5645 5640 5635 5630 5624 5617 5610 5602 5594 5585 5576 5567 5558 5548 5538 5528 5518 5506 5496 5488 5473 5456 5436 5420 5406 5392 5381 5372 5367 5361 5355 5350 5344 5338 5332 5326 5321 5315
5653 5650 5647 5643 5639 5634 5629 5624 5618 5611 5603 5595 5587 5578 5569 5560 5550 5540 5530 5519 5508 5496 5483 5470 5458 5444 5427 5409 5394 5384 5377 5367 5360 5354 5348 5343 5338 5331 5325 5318 5312 5306 5300
5644 5641 5637 5633 5628 5623 5618 5612 5605 5597 5589 5581 5572 5562 5553 5543 5533 5522 5511 5499 5486 5472 5457 5442 5428 5413 5399 5386 5376 5368 5362 5356 5349 5342 5337 5332 5326 5320 5313 5307 5300 5292 5284
5635 5631 5628 5623 5618 5612 5606 5599 5591 5583 5575 5566 5556 5547 5537 5527 5517 5505 5492 5478 5462 5445 5429 5414 5400 5387 5377 5368 5362 5355 5350 5345 5340 5333 5326 5322 5315 5309 5302 5296 5288 5280 5271
5626 5622 5618 5612 5607 5600 5593 5586 5578 5569 5560 5551 5541 5532 5522 5511 5499 5487 5473 5457 5439 5419 5402 5388 5378 5368 5361 5355 5350 5345 5339 5334 5328 5321 5315 5312 5305 5298 5291 5284 5277 5269 5260
5616 5612 5607 5601 5595 5588 5581 5573 5565 5556 5547 5537 5526 5516 5505 5493 5479 5465 5452 5436 5417 5399 5383 5371 5362 5356 5349 5343 5338 5333 5328 5324 5319 5310 5304 5300 5294 5288 5280 5273 5267 5259 5252
5607 5602 5596 5590 5583 5576 5568 5560 5551 5542 5533 5523 5512 5500 5487 5474 5459 5444 5429 5414 5397 5380 5367 5357 5351 5345 5339 5332 5326 5321 5317 5312 5308 5302 5294 5289 5284 5278 5271 5264 5258 5252 5246
5596 5591 5585 5578 5571 5563 5555 5546 5538 5529 5521 5510 5497 5482 5468 5453 5436 5419 5404 5390 5378 5367 5357 5348 5341 5335 5329 5322 5316 5310 5305 5300 5296 5293 5287 5281 5275 5269 5265 5257 5251 5246 5240